Location: Buckland
(65.9785°N, 161.1281°W)
Time: 07:38:01
(UTC+00:00)

Transit 2A Rocket - Pass Details

Date: 01 December 2020
Orbit: 592 x 910 km, 66.7° (Epoch: 21 January)

Event Time Altitude Azimuth Distance (km) Brightness Sun altitude
Exits shadow 13:56:26 31° 80° (E) 1,335 6.6 -35.5°
Drops below altitude 10° 13:59:11 10° 67° (ENE) 2,275 8.2 -35.2°
Sets 14:01:30 0° 63° (ENE) 3,150 9.2 -35.0°
